FW9167 Weather Reports


Display with metric or nautical units.
time (UTC)temp
F
wind
direction
speed
MPH
gust
MPH
rain 1hr
in
rain 24hr
in
rain mn
in
humidity
%
barometer
mb
20260508080105 51 313 0.0 5.0 0.00 0.00 0.00 56 1016.0
20260508074601 51 349 1.0 4.0 0.00 0.00 0.00 56 1016.0
20260508073102 51 355 0.0 3.0 0.00 0.00 0.00 55 1015.9
20260508071602 53 340 0.0 4.0 0.00 0.00 0.00 53 1015.9
20260508064604 54 332 3.0 4.0 0.00 0.00 0.00 50 1015.8
20260508063101 53 329 3.0 7.0 0.00 0.00 0.00 52 1015.8
20260508061607 54 345 0.0 6.0 0.00 0.00 0.00 51 1015.7
20260508060104 55 334 3.0 8.0 0.00 0.00 0.00 49 1015.6
20260508051604 54 330 0.0 3.0 0.00 0.00 0.00 49 1015.4
20260508050103 54 333 0.0 2.0 0.00 0.00 0.00 48 1015.4
20260508044602 53 5 0.0 2.0 0.00 0.00 0.00 53 1015.3
20260508041602 57 325 0.0 4.0 0.00 0.00 0.00 43 1015.0
20260508034606 56 359 1.0 1.0 0.00 0.00 0.00 51 1014.8
20260508033103 59 19 0.0 3.0 0.00 0.00 0.00 48 1014.5
20260508031602 60 342 1.0 3.0 0.00 0.00 0.00 46 1014.4
20260508030103 63 11 1.0 2.0 0.00 0.00 0.00 45 1014.2
20260508024602 66 333 0.0 3.0 0.00 0.00 0.00 37 1014.0
20260508023102 71 41 1.0 5.0 0.00 0.00 0.00 32 1013.8
20260508021604 71 20 1.0 3.0 0.00 0.00 0.00 31 1013.7
20260508013102 72 267 3.0 9.0 0.00 0.00 0.00 24 1013.1
20260508011601 73 264 3.0 8.0 0.00 0.00 0.00 22 1013.1
20260508004601 75 256 12.0 12.0 0.00 0.00 0.00 24 1013.2
20260508003102 75 252 8.0 18.0 0.00 0.00 0.00 18 1013.3
20260508001601 75 269 6.0 12.0 0.00 0.00 0.00 20 1013.3
20260507234602 75 291 6.0 15.0 0.00 0.00 0.00 21 1013.4
20260507233103 75 248 11.0 16.0 0.00 0.00 0.00 23 1013.4
20260507231605 75 288 6.0 15.0 0.00 0.00 0.00 21 1013.6
20260507224603 75 245 5.0 17.0 0.00 0.00 0.00 25 1013.7
20260507223103 75 226 7.0 17.0 0.00 0.00 0.00 28 1013.8
20260507221605 74 269 5.0 16.0 0.00 0.00 0.00 27 1014.0
20260507214602 73 222 9.0 17.0 0.00 0.00 0.00 29 1014.6
20260507213105 73 211 13.0 17.0 0.00 0.00 0.00 29 1014.8
20260507204602 73 211 7.0 15.0 0.00 0.00 0.00 35 1015.1
20260507201601 72 203 8.0 16.0 0.00 0.00 0.00 34 1015.7
20260507194602 72 214 8.0 15.0 0.00 0.00 0.00 32 1015.9
20260507193102 72 129 7.0 7.0 0.00 0.00 0.00 39 1015.8
20260507191602 71 108 3.0 6.0 0.00 0.00 0.00 35 1016.0
20260507184602 69 146 2.0 7.0 0.00 0.00 0.00 39 1016.2
20260507183102 69 115 3.0 6.0 0.00 0.00 0.00 39 1016.3
20260507181602 68 52 5.0 6.0 0.00 0.00 0.00 40 1016.5
20260507180104 67 131 2.0 6.0 0.00 0.00 0.00 42 1016.4
20260507173102 67 39 0.0 5.0 0.00 0.00 0.00 44 1016.6
20260507164602 65 36 1.0 4.0 0.00 0.00 0.00 42 1016.9
20260507163105 64 121 0.0 1.0 0.00 0.00 0.00 44 1016.9
20260507161602 64 242 0.0 2.0 0.00 0.00 0.00 46 1017.0
20260507154602 62 203 0.0 2.0 0.00 0.00 0.00 49 1017.1
20260507153102 61 250 3.0 3.0 0.00 0.00 0.00 55 1017.2
20260507144601 57 143 0.0 1.0 0.00 0.00 0.00 59 1016.9
20260507143101 56 110 0.0 1.0 0.00 0.00 0.00 60 1016.8
20260507141601 55 38 0.0 0.0 0.00 0.00 0.00 65 1016.8
20260507134602 51 345 0.0 2.0 0.00 0.00 0.00 68 1016.4
20260507133102 47 330 0.0 2.0 0.00 0.00 0.00 72 1016.0
20260507131601 47 330 0.0 2.0 0.00 0.00 0.00 72 1016.0
20260507124602 47 340 0.0 4.0 0.00 0.00 0.00 69 1016.1
20260507123102 48 347 1.0 3.0 0.00 0.00 0.00 64 1016.0
20260507121605 48 26 2.0 3.0 0.00 0.00 0.00 64 1016.0
20260507114602 48 331 1.0 4.0 0.00 0.00 0.00 63 1015.8
20260507113101 49 33 0.0 3.0 0.00 0.00 0.00 60 1015.8
20260507111601 49 330 2.0 5.0 0.00 0.00 0.00 61 1015.8
20260507104606 50 338 2.0 3.0 0.00 0.00 0.00 59 1015.6
20260507103101 48 18 1.0 5.0 0.00 0.00 0.00 67 1015.6
20260507101602 48 355 2.0 5.0 0.00 0.00 0.00 68 1015.5
20260507094602 48 340 0.0 2.0 0.00 0.00 0.00 74 1015.4
20260507093102 50 8 0.0 2.0 0.00 0.00 0.00 70 1015.3
20260507091602 54 335 0.0 3.0 0.00 0.00 0.00 64 1015.4
20260507084602 54 236 1.0 3.0 0.00 0.00 0.00 64 1015.4
20260507083102 54 22 0.0 3.0 0.00 0.00 0.00 67 1015.3
20260507081601 53 350 1.0 4.0 0.00 0.00 0.00 68 1015.4